| time (UTC) | temp F | wind direction | speed MPH | gust MPH | rain 1hr in | rain 24hr in | rain mn in | humidity % | barometer mb |
| 20260906090802 | 49 | 292 | 0.0 | 0.0 | 0.00 | 0.00 | 0.00 | 98 | 1014.0 |
| 20260906090301 | 49 | 292 | 0.0 | 0.0 | 0.00 | 0.00 | 0.00 | 98 | 1013.9 |
| 20260906085800 | 49 | 292 | 0.0 | 0.0 | 0.00 | 0.00 | 0.00 | 98 | 1014.1 |
| 20260906085253 | 49 | 292 | 0.0 | 0.0 | 0.00 | 0.00 | 0.00 | 98 | 1014.0 |
| 20260906084748 | 49 | 292 | 0.0 | 0.0 | 0.00 | 0.00 | 0.00 | 98 | 1014.1 |
| 20260906084242 | 49 | 292 | 0.0 | 0.0 | 0.00 | 0.00 | 0.00 | 98 | 1014.0 |
| 20260906083737 | 49 | 292 | 0.0 | 0.0 | 0.00 | 0.00 | 0.00 | 98 | 1014.0 |
| 20260906083233 | 49 | 292 | 0.0 | 0.0 | 0.00 | 0.00 | 0.00 | 98 | 1014.0 |
| 20260906082728 | 49 | 292 | 0.0 | 0.0 | 0.00 | 0.00 | 0.00 | 98 | 1014.1 |
| 20260906082223 | 49 | 292 | 0.0 | 0.0 | 0.00 | 0.00 | 0.00 | 98 | 1014.0 |
| 20260906081719 | 49 | 292 | 0.0 | 0.0 | 0.00 | 0.00 | 0.00 | 97 | 1014.3 |
| 20260906081213 | 49 | 292 | 0.0 | 0.0 | 0.00 | 0.00 | 0.00 | 97 | 1014.1 |
| 20260906080710 | 49 | 292 | 0.0 | 0.0 | 0.00 | 0.00 | 0.00 | 97 | 1014.2 |
| 20260906080206 | 50 | 292 | 0.0 | 0.0 | 0.00 | 0.00 | 0.00 | 97 | 1014.1 |
| 20260906075700 | 50 | 292 | 0.0 | 0.0 | 0.00 | 0.00 | 0.00 | 97 | 1014.3 |
| 20260906075154 | 50 | 292 | 0.0 | 0.0 | 0.00 | 0.00 | 0.00 | 97 | 1014.2 |
| 20260906074649 | 50 | 292 | 0.0 | 0.0 | 0.00 | 0.00 | 0.00 | 96 | 1014.3 |
| 20260906074143 | 50 | 292 | 0.0 | 0.0 | 0.00 | 0.00 | 0.00 | 96 | 1014.2 |
| 20260906073638 | 50 | 292 | 0.0 | 0.0 | 0.00 | 0.00 | 0.00 | 96 | 1014.1 |
| 20260906073134 | 51 | 292 | 0.0 | 0.0 | 0.00 | 0.00 | 0.00 | 96 | 1014.3 |
| 20260906072629 | 50 | 292 | 0.0 | 0.0 | 0.00 | 0.00 | 0.00 | 96 | 1014.3 |
| 20260906072124 | 50 | 292 | 0.0 | 0.0 | 0.00 | 0.00 | 0.00 | 96 | 1014.1 |
| 20260906071620 | 51 | 292 | 0.0 | 0.0 | 0.00 | 0.00 | 0.00 | 96 | 1014.2 |
| 20260906071115 | 51 | 292 | 0.0 | 0.0 | 0.00 | 0.00 | 0.00 | 96 | 1014.2 |
| 20260906070612 | 50 | 292 | 0.0 | 0.0 | 0.00 | 0.00 | 0.00 | 97 | 1014.4 |
| 20260906070107 | 50 | 292 | 0.0 | 0.0 | 0.00 | 0.00 | 0.00 | 96 | 1014.2 |
| 20260906065607 | 50 | 292 | 0.0 | 0.0 | 0.00 | 0.00 | 0.00 | 96 | 1014.4 |
| 20260906065102 | 51 | 292 | 0.0 | 0.0 | 0.00 | 0.00 | 0.00 | 96 | 1014.3 |
| 20260906064557 | 50 | 292 | 0.0 | 0.0 | 0.00 | 0.00 | 0.00 | 97 | 1014.2 |
| 20260906064052 | 51 | 291 | 0.0 | 0.0 | 0.00 | 0.00 | 0.00 | 96 | 1014.2 |
| 20260906063547 | 51 | 291 | 0.0 | 0.0 | 0.00 | 0.00 | 0.00 | 97 | 1014.2 |
| 20260906063043 | 51 | 290 | 0.0 | 0.0 | 0.00 | 0.00 | 0.00 | 97 | 1014.2 |
| 20260906062538 | 51 | 289 | 0.0 | 0.0 | 0.00 | 0.00 | 0.00 | 97 | 1014.3 |
| 20260906062032 | 51 | 296 | 0.0 | 0.0 | 0.00 | 0.00 | 0.00 | 96 | 1014.2 |
| 20260906061529 | 51 | 296 | 0.0 | 0.0 | 0.00 | 0.00 | 0.00 | 97 | 1014.3 |
| 20260906061027 | 51 | 295 | 0.0 | 0.0 | 0.00 | 0.00 | 0.00 | 96 | 1014.3 |
| 20260906060524 | 51 | 298 | 0.0 | 0.0 | 0.00 | 0.00 | 0.00 | 96 | 1014.3 |
| 20260906060021 | 51 | 293 | 0.0 | 0.0 | 0.00 | 0.00 | 0.00 | 96 | 1014.3 |
| 20260906055517 | 51 | 259 | 1.0 | 1.0 | 0.00 | 0.00 | 0.00 | 96 | 1014.1 |
| 20260906055012 | 51 | 272 | 1.0 | 1.0 | 0.00 | 0.00 | 0.00 | 95 | 1014.3 |
| 20260906054507 | 51 | 285 | 0.0 | 0.0 | 0.00 | 0.00 | 0.00 | 95 | 1014.3 |
| 20260906054002 | 51 | 276 | 0.0 | 1.0 | 0.00 | 0.00 | 0.00 | 95 | 1014.4 |
| 20260906053458 | 52 | 274 | 1.0 | 1.0 | 0.00 | 0.00 | 0.00 | 95 | 1014.3 |
| 20260906052954 | 52 | 300 | 0.0 | 0.0 | 0.00 | 0.00 | 0.00 | 94 | 1014.4 |
| 20260906052450 | 52 | 292 | 0.0 | 0.0 | 0.00 | 0.00 | 0.00 | 94 | 1014.3 |
| 20260906051946 | 52 | 294 | 0.0 | 0.0 | 0.00 | 0.00 | 0.00 | 94 | 1014.3 |
| 20260906051442 | 52 | 293 | 0.0 | 0.0 | 0.00 | 0.00 | 0.00 | 94 | 1014.4 |
| 20260906050937 | 52 | 282 | 1.0 | 1.0 | 0.00 | 0.00 | 0.00 | 94 | 1014.3 |
| 20260906050437 | 52 | 299 | 0.0 | 0.0 | 0.00 | 0.00 | 0.00 | 93 | 1014.4 |
| 20260906045936 | 52 | 295 | 0.0 | 0.0 | 0.00 | 0.00 | 0.00 | 93 | 1014.4 |
| 20260906045435 | 52 | 297 | 0.0 | 0.0 | 0.00 | 0.00 | 0.00 | 93 | 1014.5 |
| 20260906044931 | 53 | 297 | 0.0 | 0.0 | 0.00 | 0.00 | 0.00 | 92 | 1014.5 |
| 20260906044426 | 53 | 297 | 0.0 | 0.0 | 0.00 | 0.00 | 0.00 | 92 | 1014.5 |
| 20260906043922 | 53 | 297 | 0.0 | 0.0 | 0.00 | 0.00 | 0.00 | 92 | 1014.5 |
| 20260906043417 | 53 | 296 | 0.0 | 0.0 | 0.00 | 0.00 | 0.00 | 91 | 1014.4 |
| 20260906042913 | 53 | 300 | 0.0 | 0.0 | 0.00 | 0.00 | 0.00 | 90 | 1014.4 |
| 20260906042412 | 53 | 304 | 0.0 | 0.0 | 0.00 | 0.00 | 0.00 | 91 | 1014.2 |
| 20260906041907 | 54 | 304 | 0.0 | 0.0 | 0.00 | 0.00 | 0.00 | 90 | 1014.1 |
| 20260906041403 | 54 | 303 | 0.0 | 0.0 | 0.00 | 0.00 | 0.00 | 90 | 1014.4 |
| 20260906040903 | 54 | 302 | 0.0 | 0.0 | 0.00 | 0.00 | 0.00 | 89 | 1014.1 |
| 20260906040358 | 55 | 296 | 1.0 | 1.0 | 0.00 | 0.00 | 0.00 | 88 | 1014.0 |
| 20260906035853 | 55 | 281 | 0.0 | 0.0 | 0.00 | 0.00 | 0.00 | 87 | 1014.1 |
| 20260906035349 | 55 | 287 | 0.0 | 1.0 | 0.00 | 0.00 | 0.00 | 87 | 1014.0 |
| 20260906034843 | 55 | 294 | 0.0 | 0.0 | 0.00 | 0.00 | 0.00 | 87 | 1014.0 |
| 20260906034338 | 56 | 292 | 0.0 | 0.0 | 0.00 | 0.00 | 0.00 | 86 | 1014.0 |
| 20260906033834 | 56 | 305 | 0.0 | 1.0 | 0.00 | 0.00 | 0.00 | 84 | 1013.9 |
| 20260906033333 | 57 | 260 | 1.0 | 2.0 | 0.00 | 0.00 | 0.00 | 83 | 1013.9 |
| 20260906032830 | 57 | 291 | 1.0 | 1.0 | 0.00 | 0.00 | 0.00 | 82 | 1014.0 |
| 20260906032326 | 57 | 304 | 0.0 | 1.0 | 0.00 | 0.00 | 0.00 | 81 | 1013.9 |
| 20260906031821 | 58 | 297 | 0.0 | 1.0 | 0.00 | 0.00 | 0.00 | 80 | 1013.8 |
| 20260906031316 | 58 | 320 | 1.0 | 2.0 | 0.00 | 0.00 | 0.00 | 79 | 1014.0 |
| 20260906030815 | 58 | 309 | 1.0 | 1.0 | 0.00 | 0.00 | 0.00 | 79 | 1014.0 |
| 20260906030311 | 58 | 306 | 1.0 | 1.0 | 0.00 | 0.00 | 0.00 | 78 | 1014.1 |
| 20260906025811 | 58 | 311 | 0.0 | 0.0 | 0.00 | 0.00 | 0.00 | 78 | 1013.9 |
| 20260906025306 | 59 | 312 | 0.0 | 0.0 | 0.00 | 0.00 | 0.00 | 78 | 1014.0 |
| 20260906024804 | 59 | 319 | 0.0 | 1.0 | 0.00 | 0.00 | 0.00 | 77 | 1013.9 |
| 20260906024303 | 59 | 305 | 0.0 | 0.0 | 0.00 | 0.00 | 0.00 | 76 | 1013.9 |
| 20260906023759 | 60 | 314 | 1.0 | 1.0 | 0.00 | 0.00 | 0.00 | 74 | 1014.0 |
| 20260906023254 | 60 | 309 | 0.0 | 0.0 | 0.00 | 0.00 | 0.00 | 73 | 1014.0 |
| 20260906022750 | 60 | 290 | 1.0 | 1.0 | 0.00 | 0.00 | 0.00 | 72 | 1013.9 |
| 20260906022245 | 61 | 301 | 0.0 | 0.0 | 0.00 | 0.00 | 0.00 | 71 | 1014.1 |
| 20260906021741 | 61 | 302 | 1.0 | 1.0 | 0.00 | 0.00 | 0.00 | 70 | 1014.0 |
| 20260906021240 | 61 | 273 | 0.0 | 0.0 | 0.00 | 0.00 | 0.00 | 69 | 1014.0 |
| 20260906020734 | 62 | 308 | 0.0 | 1.0 | 0.00 | 0.00 | 0.00 | 67 | 1014.2 |
| 20260906020229 | 62 | 317 | 0.0 | 1.0 | 0.00 | 0.00 | 0.00 | 65 | 1014.1 |
| 20260906015724 | 63 | 338 | 1.0 | 1.0 | 0.00 | 0.00 | 0.00 | 66 | 1014.2 |
| 20260906015222 | 63 | 306 | 3.0 | 5.0 | 0.00 | 0.00 | 0.00 | 64 | 1014.2 |
| 20260906014717 | 63 | 324 | 0.0 | 1.0 | 0.00 | 0.00 | 0.00 | 64 | 1014.2 |
| 20260906014213 | 64 | 292 | 1.0 | 2.0 | 0.00 | 0.00 | 0.00 | 63 | 1014.0 |
| 20260906013709 | 64 | 299 | 0.0 | 0.0 | 0.00 | 0.00 | 0.00 | 62 | 1014.2 |
| 20260906013208 | 64 | 283 | 2.0 | 2.0 | 0.00 | 0.00 | 0.00 | 63 | 1014.1 |
| 20260906012703 | 64 | 304 | 1.0 | 1.0 | 0.00 | 0.00 | 0.00 | 63 | 1014.1 |
| 20260906012158 | 65 | 254 | 3.0 | 5.0 | 0.00 | 0.00 | 0.00 | 62 | 1014.1 |
| 20260906011653 | 65 | 261 | 1.0 | 1.0 | 0.00 | 0.00 | 0.00 | 64 | 1014.3 |
| 20260906011147 | 65 | 302 | 1.0 | 2.0 | 0.00 | 0.00 | 0.00 | 64 | 1014.2 |
| 20260906010637 | 65 | 231 | 1.0 | 2.0 | 0.00 | 0.00 | 0.00 | 64 | 1014.2 |
| 20260906010133 | 65 | 300 | 1.0 | 2.0 | 0.00 | 0.00 | 0.00 | 64 | 1014.1 |
| 20260906005632 | 66 | 311 | 6.0 | 7.0 | 0.00 | 0.00 | 0.00 | 63 | 1014.1 |
| 20260906005127 | 66 | 295 | 1.0 | 2.0 | 0.00 | 0.00 | 0.00 | 62 | 1014.1 |
| 20260906004626 | 66 | 212 | 2.0 | 3.0 | 0.00 | 0.00 | 0.00 | 61 | 1014.1 |
| 20260906004121 | 66 | 253 | 2.0 | 3.0 | 0.00 | 0.00 | 0.00 | 62 | 1014.2 |
| 20260906003616 | 66 | 287 | 1.0 | 2.0 | 0.00 | 0.00 | 0.00 | 62 | 1014.3 |
| 20260906003112 | 67 | 287 | 2.0 | 2.0 | 0.00 | 0.00 | 0.00 | 59 | 1014.1 |
| 20260906002607 | 68 | 305 | 0.0 | 1.0 | 0.00 | 0.00 | 0.00 | 59 | 1014.4 |
| 20260906002101 | 69 | 291 | 4.0 | 5.0 | 0.00 | 0.00 | 0.00 | 56 | 1014.3 |
| 20260906001551 | 68 | 344 | 3.0 | 3.0 | 0.00 | 0.00 | 0.00 | 60 | 1014.2 |
| 20260906001050 | 69 | 308 | 3.0 | 3.0 | 0.00 | 0.00 | 0.00 | 60 | 1014.2 |
| 20260906000547 | 69 | 303 | 3.0 | 3.0 | 0.00 | 0.00 | 0.00 | 58 | 1014.3 |
| 20260906000042 | 69 | 284 | 2.0 | 3.0 | 0.00 | 0.00 | 0.00 | 56 | 1014.3 |
| 20260905235536 | 70 | 316 | 1.0 | 2.0 | 0.00 | 0.00 | 0.00 | 56 | 1014.3 |
| 20260905235031 | 70 | 235 | 3.0 | 5.0 | 0.00 | 0.00 | 0.00 | 55 | 1014.1 |
| 20260905234526 | 70 | 289 | 2.0 | 3.0 | 0.00 | 0.00 | 0.00 | 55 | 1014.3 |
| 20260905234021 | 71 | 278 | 3.0 | 3.0 | 0.00 | 0.00 | 0.00 | 57 | 1014.2 |
| 20260905233516 | 71 | 307 | 1.0 | 2.0 | 0.00 | 0.00 | 0.00 | 56 | 1014.3 |
| 20260905233015 | 69 | 301 | 1.0 | 2.0 | 0.00 | 0.00 | 0.00 | 59 | 1014.2 |
| 20260905232511 | 71 | 248 | 4.0 | 6.0 | 0.00 | 0.00 | 0.00 | 55 | 1014.3 |
| 20260905232007 | 70 | 285 | 1.0 | 1.0 | 0.00 | 0.00 | 0.00 | 57 | 1014.3 |
| 20260905231502 | 71 | 306 | 2.0 | 2.0 | 0.00 | 0.00 | 0.00 | 56 | 1014.3 |
| 20260905230958 | 71 | 232 | 3.0 | 5.0 | 0.00 | 0.00 | 0.00 | 55 | 1014.6 |
| 20260905230456 | 71 | 236 | 0.0 | 1.0 | 0.00 | 0.00 | 0.00 | 57 | 1014.6 |
| 20260905225954 | 71 | 297 | 3.0 | 3.0 | 0.00 | 0.00 | 0.00 | 55 | 1014.5 |
| 20260905225450 | 71 | 230 | 2.0 | 2.0 | 0.00 | 0.00 | 0.00 | 57 | 1014.6 |
| 20260905224945 | 71 | 275 | 1.0 | 1.0 | 0.00 | 0.00 | 0.00 | 58 | 1014.8 |
| 20260905224440 | 71 | 249 | 3.0 | 5.0 | 0.00 | 0.00 | 0.00 | 55 | 1014.9 |
| 20260905223939 | 70 | 265 | 2.0 | 3.0 | 0.00 | 0.00 | 0.00 | 57 | 1014.8 |
| 20260905223438 | 71 | 274 | 3.0 | 5.0 | 0.00 | 0.00 | 0.00 | 57 | 1014.7 |
| 20260905222932 | 71 | 259 | 3.0 | 5.0 | 0.00 | 0.00 | 0.00 | 56 | 1014.9 |
| 20260905222432 | 71 | 295 | 3.0 | 5.0 | 0.00 | 0.00 | 0.00 | 59 | 1014.8 |
| 20260905221928 | 71 | 253 | 5.0 | 7.0 | 0.00 | 0.00 | 0.00 | 59 | 1014.8 |
| 20260905221424 | 72 | 256 | 4.0 | 7.0 | 0.00 | 0.00 | 0.00 | 56 | 1014.9 |
| 20260905220920 | 73 | 306 | 1.0 | 1.0 | 0.00 | 0.00 | 0.00 | 56 | 1015.0 |
| 20260905220416 | 73 | 311 | 2.0 | 2.0 | 0.00 | 0.00 | 0.00 | 54 | 1014.8 |
| 20260905215915 | 74 | 335 | 1.0 | 2.0 | 0.00 | 0.00 | 0.00 | 57 | 1014.8 |
| 20260905215411 | 73 | 304 | 4.0 | 5.0 | 0.00 | 0.00 | 0.00 | 55 | 1014.6 |
| 20260905214907 | 73 | 257 | 4.0 | 6.0 | 0.00 | 0.00 | 0.00 | 53 | 1015.1 |
| 20260905214403 | 74 | 233 | 2.0 | 3.0 | 0.00 | 0.00 | 0.00 | 49 | 1015.0 |
| 20260905213857 | 75 | 237 | 6.0 | 10.0 | 0.00 | 0.00 | 0.00 | 45 | 1014.7 |
| 20260905213353 | 75 | 284 | 5.0 | 6.0 | 0.00 | 0.00 | 0.00 | 47 | 1014.6 |
| 20260905212854 | 75 | 306 | 4.0 | 6.0 | 0.00 | 0.00 | 0.00 | 49 | 1014.8 |
| 20260905212354 | 74 | 240 | 2.0 | 3.0 | 0.00 | 0.00 | 0.00 | 47 | 1014.8 |
| 20260905211847 | 75 | 269 | 1.0 | 1.0 | 0.00 | 0.00 | 0.00 | 47 | 1014.7 |
| 20260905211343 | 75 | 253 | 3.0 | 3.0 | 0.00 | 0.00 | 0.00 | 44 | 1014.8 |
| 20260905210839 | 75 | 272 | 3.0 | 3.0 | 0.00 | 0.00 | 0.00 | 46 | 1014.7 |
| 20260905210334 | 75 | 247 | 4.0 | 5.0 | 0.00 | 0.00 | 0.00 | 44 | 1014.7 |
| 20260905205833 | 74 | 223 | 2.0 | 3.0 | 0.00 | 0.00 | 0.00 | 47 | 1014.9 |
| 20260905205332 | 75 | 256 | 3.0 | 3.0 | 0.00 | 0.00 | 0.00 | 47 | 1014.8 |
| 20260905204827 | 74 | 232 | 3.0 | 5.0 | 0.00 | 0.00 | 0.00 | 47 | 1014.7 |
| 20260905204323 | 75 | 220 | 4.0 | 6.0 | 0.00 | 0.00 | 0.00 | 52 | 1014.9 |
| 20260905203821 | 74 | 293 | 3.0 | 5.0 | 0.00 | 0.00 | 0.00 | 52 | 1014.7 |
| 20260905203318 | 73 | 304 | 2.0 | 3.0 | 0.00 | 0.00 | 0.00 | 53 | 1014.8 |
| 20260905202813 | 73 | 195 | 4.0 | 7.0 | 0.00 | 0.00 | 0.00 | 55 | 1014.7 |
| 20260905202307 | 73 | 191 | 5.0 | 7.0 | 0.00 | 0.00 | 0.00 | 55 | 1014.7 |
| 20260905201758 | 73 | 220 | 3.0 | 3.0 | 0.00 | 0.00 | 0.00 | 55 | 1014.6 |
| 20260905201253 | 74 | 224 | 2.0 | 3.0 | 0.00 | 0.00 | 0.00 | 56 | 1014.6 |
| 20260905200747 | 73 | 248 | 3.0 | 5.0 | 0.00 | 0.00 | 0.00 | 60 | 1014.6 |
| 20260905200243 | 73 | 135 | 2.0 | 3.0 | 0.00 | 0.00 | 0.00 | 58 | 1014.5 |
| 20260905195740 | 73 | 125 | 2.0 | 2.0 | 0.00 | 0.00 | 0.00 | 61 | 1014.6 |
| 20260905195236 | 73 | 249 | 4.0 | 5.0 | 0.00 | 0.00 | 0.00 | 60 | 1014.8 |
| 20260905194732 | 73 | 94 | 2.0 | 3.0 | 0.00 | 0.00 | 0.00 | 59 | 1014.7 |
| 20260905194231 | 75 | 283 | 2.0 | 3.0 | 0.00 | 0.00 | 0.00 | 58 | 1014.8 |
| 20260905193725 | 74 | 250 | 2.0 | 3.0 | 0.00 | 0.00 | 0.00 | 59 | 1014.8 |
| 20260905193220 | 75 | 310 | 0.0 | 0.0 | 0.00 | 0.00 | 0.00 | 57 | 1014.7 |
| 20260905192716 | 74 | 240 | 2.0 | 2.0 | 0.00 | 0.00 | 0.00 | 58 | 1014.8 |
| 20260905192213 | 73 | 252 | 0.0 | 1.0 | 0.00 | 0.00 | 0.00 | 60 | 1014.8 |
| 20260905191712 | 73 | 225 | 3.0 | 5.0 | 0.00 | 0.00 | 0.00 | 59 | 1014.8 |
| 20260905191210 | 72 | 32 | 1.0 | 1.0 | 0.00 | 0.00 | 0.00 | 57 | 1014.9 |
| 20260905190709 | 72 | 83 | 3.0 | 3.0 | 0.00 | 0.00 | 0.00 | 59 | 1014.8 |
| 20260905190207 | 72 | 285 | 1.0 | 1.0 | 0.00 | 0.00 | 0.00 | 58 | 1015.0 |
| 20260905185701 | 72 | 291 | 0.0 | 1.0 | 0.00 | 0.00 | 0.00 | 59 | 1014.9 |
| 20260905185155 | 73 | 233 | 1.0 | 1.0 | 0.00 | 0.00 | 0.00 | 59 | 1015.0 |
| 20260905184654 | 71 | 346 | 0.0 | 0.0 | 0.00 | 0.00 | 0.00 | 62 | 1015.1 |
| 20260905184153 | 71 | 12 | 0.0 | 1.0 | 0.00 | 0.00 | 0.00 | 64 | 1015.0 |
| 20260905183648 | 70 | 54 | 1.0 | 1.0 | 0.00 | 0.00 | 0.00 | 63 | 1015.0 |
| 20260905183143 | 71 | 76 | 2.0 | 3.0 | 0.00 | 0.00 | 0.00 | 65 | 1015.1 |
| 20260905182642 | 71 | 295 | 1.0 | 2.0 | 0.00 | 0.00 | 0.00 | 65 | 1015.0 |
| 20260905182137 | 71 | 254 | 2.0 | 2.0 | 0.00 | 0.00 | 0.00 | 66 | 1015.1 |
| 20260905181632 | 69 | 147 | 2.0 | 2.0 | 0.00 | 0.00 | 0.00 | 67 | 1014.9 |
| 20260905181131 | 69 | 10 | 0.0 | 1.0 | 0.00 | 0.00 | 0.00 | 68 | 1015.0 |
| 20260905180626 | 69 | 298 | 2.0 | 2.0 | 0.00 | 0.00 | 0.00 | 69 | 1015.0 |
| 20260905180121 | 68 | 326 | 1.0 | 1.0 | 0.00 | 0.00 | 0.00 | 69 | 1015.0 |
| 20260905175620 | 68 | 291 | 1.0 | 2.0 | 0.00 | 0.00 | 0.00 | 73 | 1014.9 |
| 20260905175116 | 68 | 219 | 1.0 | 2.0 | 0.00 | 0.00 | 0.00 | 71 | 1014.9 |
| 20260905174611 | 68 | 282 | 2.0 | 3.0 | 0.00 | 0.00 | 0.00 | 72 | 1015.1 |
| 20260905174106 | 68 | 306 | 0.0 | 1.0 | 0.00 | 0.00 | 0.00 | 74 | 1015.0 |
| 20260905173603 | 68 | 263 | 1.0 | 2.0 | 0.00 | 0.00 | 0.00 | 72 | 1015.0 |
| 20260905173058 | 68 | 274 | 1.0 | 2.0 | 0.00 | 0.00 | 0.00 | 75 | 1014.9 |
| 20260905172556 | 68 | 298 | 0.0 | 1.0 | 0.00 | 0.00 | 0.00 | 73 | 1014.9 |
| 20260905172052 | 67 | 81 | 1.0 | 1.0 | 0.00 | 0.00 | 0.00 | 74 | 1015.0 |
| 20260905171548 | 66 | 32 | 2.0 | 2.0 | 0.00 | 0.00 | 0.00 | 76 | 1015.1 |
| 20260905171044 | 66 | 65 | 1.0 | 3.0 | 0.00 | 0.00 | 0.00 | 77 | 1015.0 |
| 20260905170541 | 65 | 107 | 1.0 | 2.0 | 0.00 | 0.00 | 0.00 | 77 | 1014.9 |
| 20260905170036 | 64 | 133 | 3.0 | 3.0 | 0.00 | 0.00 | 0.00 | 81 | 1015.0 |
| 20260905165531 | 64 | 14 | 1.0 | 1.0 | 0.00 | 0.00 | 0.00 | 81 | 1014.8 |
| 20260905165025 | 64 | 79 | 4.0 | 5.0 | 0.00 | 0.00 | 0.00 | 79 | 1014.8 |
| 20260905164520 | 63 | 78 | 3.0 | 3.0 | 0.00 | 0.00 | 0.00 | 82 | 1014.6 |
| 20260905164015 | 62 | 99 | 1.0 | 1.0 | 0.00 | 0.00 | 0.00 | 82 | 1014.8 |
| 20260905163511 | 62 | 17 | 1.0 | 1.0 | 0.00 | 0.00 | 0.00 | 82 | 1014.9 |
| 20260905163007 | 62 | 32 | 1.0 | 2.0 | 0.00 | 0.00 | 0.00 | 82 | 1014.9 |
| 20260905162502 | 62 | 18 | 1.0 | 1.0 | 0.00 | 0.00 | 0.00 | 83 | 1014.7 |
| 20260905161957 | 63 | 25 | 0.0 | 1.0 | 0.00 | 0.00 | 0.00 | 80 | 1014.6 |
| 20260905161456 | 64 | 43 | 2.0 | 2.0 | 0.00 | 0.00 | 0.00 | 80 | 1014.7 |
| 20260905160954 | 64 | 31 | 1.0 | 1.0 | 0.00 | 0.00 | 0.00 | 79 | 1014.8 |
| 20260905160448 | 65 | 225 | 1.0 | 1.0 | 0.00 | 0.00 | 0.00 | 79 | 1014.7 |
| 20260905155948 | 66 | 350 | 0.0 | 0.0 | 0.00 | 0.00 | 0.00 | 74 | 1014.8 |
| 20260905155443 | 65 | 298 | 0.0 | 0.0 | 0.00 | 0.00 | 0.00 | 77 | 1014.8 |
| 20260905154941 | 66 | 348 | 0.0 | 0.0 | 0.00 | 0.00 | 0.00 | 75 | 1014.7 |
| 20260905154437 | 64 | 343 | 0.0 | 0.0 | 0.00 | 0.00 | 0.00 | 79 | 1014.6 |
| 20260905153932 | 64 | 338 | 0.0 | 0.0 | 0.00 | 0.00 | 0.00 | 77 | 1014.6 |
| 20260905153428 | 62 | 343 | 0.0 | 0.0 | 0.00 | 0.00 | 0.00 | 82 | 1014.6 |
| 20260905152928 | 62 | 349 | 0.0 | 0.0 | 0.00 | 0.00 | 0.00 | 83 | 1014.6 |
| 20260905152428 | 60 | 349 | 0.0 | 0.0 | 0.00 | 0.00 | 0.00 | 90 | 1014.5 |
| 20260905151923 | 58 | 354 | 0.0 | 0.0 | 0.00 | 0.00 | 0.00 | 99 | 1014.6 |
| 20260905151419 | 56 | 354 | 0.0 | 0.0 | 0.00 | 0.00 | 0.00 | 99 | 1014.4 |
| 20260905150918 | 56 | 351 | 1.0 | 1.0 | 0.00 | 0.00 | 0.00 | 99 | 1014.6 |
| 20260905150413 | 57 | 1 | 1.0 | 2.0 | 0.00 | 0.00 | 0.00 | 99 | 1014.6 |
| 20260905145909 | 56 | 317 | 0.0 | 0.0 | 0.00 | 0.00 | 0.00 | 99 | 1014.4 |
| 20260905145404 | 56 | 277 | 0.0 | 0.0 | 0.00 | 0.00 | 0.00 | 99 | 1014.3 |
| 20260905144904 | 53 | 277 | 0.0 | 0.0 | 0.00 | 0.00 | 0.00 | 99 | 1014.3 |
| 20260905144359 | 52 | 277 | 0.0 | 0.0 | 0.00 | 0.00 | 0.00 | 99 | 1014.4 |
| 20260905143858 | 52 | 275 | 0.0 | 0.0 | 0.00 | 0.00 | 0.00 | 99 | 1014.3 |
| 20260905143352 | 52 | 275 | 0.0 | 0.0 | 0.00 | 0.00 | 0.00 | 99 | 1014.5 |
| 20260905142851 | 51 | 275 | 0.0 | 0.0 | 0.00 | 0.00 | 0.00 | 99 | 1014.4 |
| 20260905142350 | 50 | 275 | 0.0 | 0.0 | 0.00 | 0.00 | 0.00 | 99 | 1014.5 |
| 20260905141846 | 49 | 275 | 0.0 | 0.0 | 0.00 | 0.00 | 0.00 | 99 | 1014.3 |
| 20260905141341 | 49 | 275 | 0.0 | 0.0 | 0.00 | 0.00 | 0.00 | 99 | 1014.2 |
| 20260905140838 | 49 | 275 | 0.0 | 0.0 | 0.00 | 0.00 | 0.00 | 99 | 1014.1 |
| 20260905140338 | 49 | 275 | 0.0 | 0.0 | 0.00 | 0.00 | 0.00 | 99 | 1014.2 |
| 20260905135836 | 49 | 275 | 0.0 | 0.0 | 0.00 | 0.00 | 0.00 | 99 | 1014.1 |
| 20260905135332 | 49 | 275 | 0.0 | 0.0 | 0.00 | 0.00 | 0.00 | 99 | 1014.2 |
| 20260905134827 | 49 | 275 | 0.0 | 0.0 | 0.00 | 0.00 | 0.00 | 99 | 1014.1 |
| 20260905134321 | 49 | 275 | 0.0 | 0.0 | 0.00 | 0.00 | 0.00 | 99 | 1014.1 |
| 20260905133820 | 48 | 275 | 0.0 | 0.0 | 0.00 | 0.00 | 0.00 | 99 | 1014.3 |
| 20260905133316 | 49 | 275 | 0.0 | 0.0 | 0.00 | 0.00 | 0.00 | 99 | 1014.1 |
| 20260905132814 | 49 | 275 | 0.0 | 0.0 | 0.00 | 0.00 | 0.00 | 99 | 1014.0 |
| 20260905132310 | 48 | 275 | 0.0 | 0.0 | 0.00 | 0.00 | 0.00 | 99 | 1014.1 |
| 20260905131805 | 48 | 275 | 0.0 | 0.0 | 0.00 | 0.00 | 0.00 | 99 | 1013.9 |
| 20260905131301 | 48 | 275 | 0.0 | 0.0 | 0.00 | 0.00 | 0.00 | 99 | 1014.0 |
| 20260905130755 | 48 | 275 | 0.0 | 0.0 | 0.00 | 0.00 | 0.00 | 99 | 1014.0 |
| 20260905130254 | 48 | 275 | 0.0 | 0.0 | 0.00 | 0.00 | 0.00 | 99 | 1013.7 |
| 20260905125750 | 48 | 275 | 0.0 | 0.0 | 0.00 | 0.00 | 0.00 | 99 | 1014.0 |
| 20260905125245 | 48 | 275 | 0.0 | 0.0 | 0.00 | 0.00 | 0.00 | 99 | 1014.0 |
| 20260905124742 | 48 | 275 | 0.0 | 0.0 | 0.00 | 0.00 | 0.00 | 99 | 1014.0 |
| 20260905124237 | 48 | 275 | 0.0 | 0.0 | 0.00 | 0.00 | 0.00 | 99 | 1014.1 |
| 20260905123732 | 48 | 275 | 0.0 | 0.0 | 0.00 | 0.00 | 0.00 | 99 | 1013.9 |
| 20260905123229 | 48 | 275 | 0.0 | 0.0 | 0.00 | 0.00 | 0.00 | 99 | 1013.9 |
| 20260905122728 | 48 | 275 | 0.0 | 0.0 | 0.00 | 0.00 | 0.00 | 99 | 1013.8 |
| 20260905122223 | 48 | 275 | 0.0 | 0.0 | 0.00 | 0.00 | 0.00 | 99 | 1013.8 |
| 20260905121718 | 48 | 275 | 0.0 | 0.0 | 0.00 | 0.00 | 0.00 | 99 | 1013.8 |
| 20260905121215 | 48 | 275 | 0.0 | 0.0 | 0.00 | 0.00 | 0.00 | 99 | 1014.2 |
| 20260905120713 | 48 | 275 | 0.0 | 0.0 | 0.00 | 0.00 | 0.00 | 99 | 1013.8 |
| 20260905120207 | 48 | 275 | 0.0 | 0.0 | 0.00 | 0.00 | 0.00 | 99 | 1014.0 |
| 20260905115702 | 48 | 275 | 0.0 | 0.0 | 0.00 | 0.00 | 0.00 | 99 | 1013.9 |
| 20260905115157 | 48 | 275 | 0.0 | 0.0 | 0.00 | 0.00 | 0.00 | 99 | 1014.1 |
| 20260905114657 | 48 | 275 | 0.0 | 0.0 | 0.00 | 0.00 | 0.00 | 99 | 1014.1 |
| 20260905114155 | 48 | 275 | 0.0 | 0.0 | 0.00 | 0.00 | 0.00 | 99 | 1014.0 |
| 20260905113649 | 49 | 275 | 0.0 | 0.0 | 0.00 | 0.00 | 0.00 | 99 | 1014.2 |
| 20260905113145 | 49 | 275 | 0.0 | 0.0 | 0.00 | 0.00 | 0.00 | 99 | 1014.0 |
| 20260905112644 | 49 | 275 | 0.0 | 0.0 | 0.00 | 0.00 | 0.00 | 99 | 1014.0 |
| 20260905112141 | 49 | 275 | 0.0 | 0.0 | 0.00 | 0.00 | 0.00 | 99 | 1014.1 |
| 20260905111640 | 49 | 275 | 0.0 | 0.0 | 0.00 | 0.00 | 0.00 | 99 | 1014.1 |
| 20260905110814 | 50 | 275 | 0.0 | 0.0 | 0.00 | 0.00 | 0.00 | 99 | 1014.1 |
| 20260905110308 | 50 | 275 | 0.0 | 0.0 | 0.00 | 0.00 | 0.00 | 99 | 1014.1 |
| 20260905105804 | 49 | 275 | 0.0 | 0.0 | 0.00 | 0.00 | 0.00 | 99 | 1014.1 |
| 20260905105306 | 49 | 275 | 0.0 | 0.0 | 0.00 | 0.00 | 0.00 | 99 | 1014.1 |
| 20260905104757 | 49 | 275 | 0.0 | 0.0 | 0.00 | 0.00 | 0.00 | 99 | 1014.1 |
| 20260905104254 | 49 | 275 | 0.0 | 0.0 | 0.00 | 0.00 | 0.00 | 99 | 1013.9 |
| 20260905103753 | 49 | 275 | 0.0 | 0.0 | 0.00 | 0.00 | 0.00 | 99 | 1014.2 |
| 20260905103249 | 49 | 275 | 0.0 | 0.0 | 0.00 | 0.00 | 0.00 | 99 | 1014.2 |
| 20260905102744 | 49 | 275 | 0.0 | 0.0 | 0.00 | 0.00 | 0.00 | 99 | 1014.2 |
| 20260905102241 | 49 | 275 | 0.0 | 1.0 | 0.00 | 0.00 | 0.00 | 99 | 1014.1 |
| 20260905101740 | 49 | 274 | 0.0 | 0.0 | 0.00 | 0.00 | 0.00 | 99 | 1014.2 |
| 20260905100212 | 50 | 274 | 0.0 | 0.0 | 0.00 | 0.00 | 0.00 | 99 | 1014.2 |
| 20260905095712 | 50 | 274 | 0.0 | 0.0 | 0.00 | 0.00 | 0.00 | 99 | 1014.2 |
| 20260905095207 | 50 | 274 | 0.0 | 0.0 | 0.00 | 0.00 | 0.00 | 99 | 1014.3 |
| 20260905094706 | 50 | 274 | 0.0 | 0.0 | 0.00 | 0.00 | 0.00 | 99 | 1014.3 |
| 20260905094201 | 50 | 274 | 0.0 | 0.0 | 0.00 | 0.00 | 0.00 | 99 | 1014.2 |
| 20260905093655 | 50 | 274 | 0.0 | 0.0 | 0.00 | 0.00 | 0.00 | 99 | 1014.2 |
| 20260905093152 | 50 | 274 | 0.0 | 0.0 | 0.00 | 0.00 | 0.00 | 99 | 1014.2 |
| 20260905092652 | 50 | 274 | 0.0 | 0.0 | 0.00 | 0.00 | 0.00 | 99 | 1014.3 |
| 20260905092148 | 50 | 274 | 0.0 | 0.0 | 0.00 | 0.00 | 0.00 | 99 | 1014.2 |
| 20260905091642 | 50 | 274 | 0.0 | 0.0 | 0.00 | 0.00 | 0.00 | 99 | 1014.2 |